Regional Weather Roundup
Issued by NWS Memphis, TN

Home | Current Version | Previous Version | Text Only | Print | Product List | Glossary On
Versions: 1 2 3 4 5 6 7 8 9 10 11 12 13 14 15 16 17 18 19 20 21 22 23 24 25 26 27 28 29 30 31 32 33 34 35 36 37 38 39 40 41 42 43 44 45 46 47 48 49 50
000
ASUS44 KMEG 281610
RWRMEG
MEMPHIS CWA HOURLY WEATHER ROUNDUP
NATIONAL WEATHER SERVICE MEMPHIS TN
1100 AM CDT SAT MAY 28 2016

...WEST TENNESSEE...

CITY           SKY/WX    TMP DP  RH WIND       PRES   REMARKS
MEMPHIS INTL   PTSUNNY   80  69  69 VRB7      30.02R
NWS MEMPHIS      N/A     81 N/A N/A MISG        N/A
JACKSON        CLOUDY    76  66  71 S9        30.04R
LEXINGTON      SUNNY     82  66  57 S7        30.05R
DYERSBURG      PTSUNNY   79  68  69 SW10      30.02R
UNION CITY     MOSUNNY   79  70  73 S12       30.01S
PARIS          SUNNY     77  64  65 S12       30.05R


...EASTERN ARKANSAS...

CITY           SKY/WX    TMP DP  RH WIND       PRES   REMARKS
JONESBORO      MOSUNNY   77  68  73 S12       29.99R
WEST MEMPHIS   MOSUNNY   79  69  71 SE15      30.00R
BATESVILLE     CLOUDY    79  64  61 S9        29.98R
NEWPORT        CLOUDY    79  68  69 S10       30.00R
WALNUT RIDGE   MOSUNNY   75  66  73 S12       29.99R
BLYTHEVILLE    PTSUNNY   78  67  68 S15       30.01R
SEARCY         PTSUNNY   78  69  73 S8        30.00R
STUTTGART      PTSUNNY   79  64  61 S14       29.99R
PINE BLUFF     MOSUNNY   77  65  66 S13       29.99R
MONTICELLO     PTSUNNY   77  66  68 SE9       30.00R


...NORTH MISSISSIPPI...

CITY           SKY/WX    TMP DP  RH WIND       PRES   REMARKS
TUPELO         MOSUNNY   84  64  50 E12       30.03F
OXFORD         SUNNY     77  64  65 S5        30.04S
BATESVILLE     SUNNY     79  69  70 SE6       30.02R
OLIVE BRANCH   PTSUNNY   75  73  94 SE8       30.02S
TUNICA         MOSUNNY   77  70  78 SE8       30.01S
CLARKSDALE     PTSUNNY   79  73  83 SE8G15    30.01R
CORINTH        SUNNY     81  66  61 S8        30.04S
GREENWOOD      CLOUDY    82  67  60 S12       30.00R
COLUMBUS       SUNNY     84  64  49 S14G22    30.04S
STARKVILLE     MOSUNNY   82  66  57 S9        30.03S
GOLDEN TRIANGL MOSUNNY   82  63  51 S14G21    30.04S


...SOUTHEAST MISSOURI...

CITY           SKY/WX    TMP DP  RH WIND       PRES   REMARKS
KENNETT        MOSUNNY   77  68  73 S14       29.99R
WEST PLAINS    MOSUNNY   75  63  66 S8        29.98R
POPLAR BLUFF   MOSUNNY   76  68  76 S10       29.98R
CAPE GIRARDEAU CLOUDY    74  67  78 S12       29.99R


...NORTHWEST ALABAMA...

CITY           SKY/WX    TMP DP  RH WIND       PRES   REMARKS
MUSCLE SHOALS  CLOUDY    84  61  45 S13       30.09S


...MIDDLE TENNESSEE...

CITY           SKY/WX    TMP DP  RH WIND       PRES   REMARKS
NASHVILLE      CLOUDY    82  63  52 S14       30.10S
CLARKSVILLE    CLOUDY    82  64  54 S12       30.06S
COLUMBIA       SUNNY     82  68  61 S8        30.08S


...WESTERN KENTUCKY...

CITY           SKY/WX    TMP DP  RH WIND       PRES   REMARKS
PADUCAH        CLOUDY    77  64  64 S12G21    30.00R
FORT CAMPBELL  MOSUNNY   81  65  58 S10       30.06R


...CENTRAL ARKANSAS...

CITY           SKY/WX    TMP DP  RH WIND       PRES   REMARKS
LITTLE ROCK    PTSUNNY   78  65  63 SE7       29.99R


SKY/WX REPORTED AS FAIR MEANS FEW OR NO CLOUDS BELOW
12 THOUSAND FEET.





USA.gov is the U.S. government's official web portal to all federal, state and local government web resources and services.